Meteo Giornale » Osservazioni meteo Cile » Iquique-Diego Arac
ore: 06:00 - Osservazioni Meteo Iquique-Diego Arac
Lat. 20° 32' S Lon. 70° 11' W Alt. 52 metri s.l.m.
18 °C
Coperto
Temp. 24 Ore
18 °C
21 °C
Nord
7.4 Km/h
Dew point 12 °C
Umidità 67 %
Visibilità 10 Km
Il sole sorge alle ore 06:49
Il sole tramonta alle ore 18:32
| Data e Ora | Cielo e Fenomeni | T °C | DP °C | Um. % | Pres. hPa | Vis. km | Vento km/h | |
|---|---|---|---|---|---|---|---|---|
| Oggi h: 06:00 | Coperto | 18 | 12 | 67 | 1014 | 10 | N 7.4 | |
| Oggi h: 05:00 | Coperto | 19 | 13 | 68 | 1014 | 10 | N 3.7 | |
| Oggi h: 04:00 | Coperto | 19 | 13 | 68 | 1015 | 10 | N 1.8 | |
| Oggi h: 03:00 | Coperto | 19 | 14 | 72 | 1015 | 10 | N 5.5 | |
| Oggi h: 02:00 | Coperto | 19 | 14 | 72 | 1016 | 10 | N 0 | |
| Oggi h: 01:00 | Coperto | 19 | 14 | 72 | 1016 | 10 | SO 9.3 | |
| Oggi h: 00:00 | Coperto | 19 | 14 | 72 | 1016 | 10 | SO 9.3 | |
| Ieri h: 23:00 | Coperto | 19 | 14 | 72 | 1016 | 10 | S/SO 13 | |
| Ieri h: 22:00 | Molto Nuvoloso | 19 | 14 | 72 | 1016 | 10 | S/SO 16.7 | |
| Ieri h: 21:00 | Poco Nuvoloso | 18 | 15 | 82 | 1015 | 10 | S 18.5 | |
| Ieri h: 19:00 | Poco Nuvoloso | 19 | 15 | 77 | 1013 | 10 | S/SO 31.5 | |
| Ieri h: 18:00 | Poco Nuvoloso | 19 | 14 | 72 | 1013 | 10 | S/SO 37 | |
| Ieri h: 17:00 | Sereno | 20 | 15 | 72 | 1013 | 10 | S/SO 33.3 | |
| Ieri h: 16:00 | Poco Nuvoloso | 21 | 14 | 64 | 1013 | 10 | S/SO 38.8 | |
| Ieri h: 15:00 | Poco Nuvoloso | 21 | 15 | 68 | 1014 | 10 | SO 38.8 | |
| Ieri h: 14:00 | Poco Nuvoloso | 21 | 15 | 68 | 1015 | 10 | SO 37 | |
| Ieri h: 13:00 | Poco Nuvoloso | 21 | 15 | 68 | 1016 | 10 | SO 37 | |
| Ieri h: 12:00 | Poco Nuvoloso | 21 | 16 | 73 | 1017 | 10 | SO 35.2 | |
| Ieri h: 11:00 | Poco Nuvoloso | 21 | 15 | 68 | 1017 | 10 | S/SO 31.5 | |
| Ieri h: 10:00 | Poco Nuvoloso | 20 | 15 | 72 | 1017 | 10 | SO 25.9 | |
| Ieri h: 09:00 | Nuvoloso | 20 | 15 | 72 | 1017 | 10 | S/SO 27.8 | |
| Ieri h: 08:00 | Molto Nuvoloso | 19 | 15 | 77 | 1017 | 10 | S 22.2 | |
| Ieri h: 07:00 | Molto Nuvoloso | 18 | 14 | 77 | 1017 | 10 | S 22.2 | |



